Theta_e
301 301 302 302 302 302 301 301 302 301 302 300 298 300 292 291 289 303 304 307 304 295 289 291 290 289 291 294 292 293 293 294 296 295 297 294 296 295 294 294 293 295 294 294 294 294 292 293 291 293 294 296 297 300 300 301 300 300 297 299 300 304 294 290 292 295 297 299 301 301 301 300 298 298 298 297 294 295 293 292 295 291 292 290 290 287 295
302 302 302 302 302 302 301 301 302 302 302 300 299 294 291 293 293 296 306 308 303 292 284 285 287 289 291 291 290 294 293 294 294 294 295 294 294 293 294 297 297 294 297 296 292 296 288 294 294 293 296 295 300 301 300 301 298 298 297 295 302 292 295 293 289 288 290 292 296 296 298 298 296 296 297 298 299 298 297 298 301 290 292 293 290 287 292
303 302 302 302 301 301 301 302 302 302 302 302 299 292 294 294 296 295 299 305 301 289 291 288 287 288 289 289 288 291 293 295 295 295 294 296 295 293 292 294 297 296 297 295 296 296 293 291 295 297 297 299 301 301 301 302 300 301 302 306 303 296 294 292 286 283 281 281 282 285 288 292 296 298 297 298 297 298 296 290 292 288 293 293 290 292 300
302 302 302 301 300 301 301 301 302 301 302 302 299 295 292 290 283 290 293 298 298 296 297 294 292 290 290 288 291 292 291 294 296 296 294 294 294 295 295 296 297 296 295 293 293 294 297 294 293 296 295 299 299 301 302 301 301 305 309 307 302 296 299 295 293 290 288 290 293 297 296 295 292 295 296 296 297 298 298 297 292 289 292 291 295 297 298
302 301 301 301 301 301 301 302 301 301 301 302 298 295 292 293 285 288 286 292 293 293 295 293 293 289 294 287 291 290 291 293 293 295 291 295 294 294 294 293 292 294 294 292 293 295 295 296 295 295 296 299 300 302 301 302 303 310 307 307 300 297 293 295 296 296 295 297 295 298 297 294 295 295 295 297 297 298 298 292 291 298 292 287 299 302 298
302 302 302 301 301 301 301 302 302 301 302 302 300 291 294 286 290 292 295 289 286 288 289 292 291 293 294 291 294 291 290 291 289 294 295 296 297 293 295 295 295 295 294 295 290 293 293 295 292 296 298 299 301 299 301 299 308 305 301 303 300 296 290 296 299 297 297 297 297 298 296 296 296 296 296 295 297 298 297 299 298 300 290 291 300 302 300
302 302 301 301 301 301 301 302 302 302 302 302 298 289 294 294 293 294 300 290 293 292 293 294 293 293 293 292 293 291 291 291 293 292 293 295 295 296 288 293 295 296 297 295 292 293 290 289 297 297 297 297 299 296 298 301 303 300 299 300 303 298 293 301 299 298 297 298 299 298 296 296 296 296 297 298 298 298 299 301 302 303 300 302 303 303 302
302 301 301 301 301 300 301 302 302 302 302 302 296 295 290 290 290 290 297 295 294 294 295 294 293 291 293 289 292 293 293 292 294 296 293 289 294 298 294 294 296 297 297 296 293 296 296 296 291 302 300 298 301 299 297 298 300 300 298 299 303 297 292 299 299 295 295 298 299 299 297 297 295 296 297 298 299 299 301 303 304 304 302 303 301 298 295
301 301 301 301 301 302 302 302 302 302 303 298 296 295 297 299 300 299 292 290 295 295 295 293 292 290 292 290 292 293 293 292 294 294 297 294 293 296 294 296 297 298 297 297 296 299 301 300 301 301 302 295 301 298 299 300 296 298 298 299 301 299 294 299 297 290 291 297 297 298 297 299 297 295 297 296 297 296 301 299 304 302 300 301 300 296 293
301 300 301 302 302 302 302 302 302 302 303 297 297 292 302 300 304 303 297 289 293 292 293 295 293 288 293 293 293 292 293 295 296 290 296 297 298 298 298 299 298 297 297 296 299 302 301 303 304 304 305 305 304 305 305 303 299 297 298 301 298 297 296 293 293 290 289 296 298 296 297 297 294 293 298 301 302 303 304 304 306 305 304 298 293 296 298
300 300 301 301 302 302 302 303 303 303 302 298 296 296 299 297 295 296 297 289 290 293 294 292 291 294 296 296 294 296 295 297 296 290 289 297 298 300 299 298 296 296 297 301 305 307 306 307 307 309 307 305 305 305 305 304 302 301 300 300 299 298 299 295 297 289 289 295 295 296 291 285 287 298 299 302 301 302 300 299 303 305 304 300 302 298 297
301 300 301 302 302 302 302 302 303 303 302 302 302 299 302 302 300 298 293 287 288 294 291 289 292 295 294 296 296 295 295 295 295 298 293 295 298 301 301 302 301 292 304 308 307 308 308 310 309 307 306 306 304 304 303 303 302 303 302 300 299 298 296 294 296 290 289 292 294 287 283 285 294 301 301 304 304 303 299 299 299 298 298 298 296 297 297
301 300 300 301 301 301 302 302 302 302 303 303 301 298 302 304 298 295 294 291 287 291 287 291 296 296 297 296 297 297 298 299 300 298 297 297 297 300 301 301 299 301 307 305 306 305 300 298 301 300 300 301 302 302 302 302 301 302 303 303 299 295 294 294 292 292 293 289 287 282 283 294 300 301 302 306 305 302 300 296 299 299 298 298 296 297 298
301 300 300 300 301 301 301 302 302 302 303 303 301 302 304 302 297 295 294 290 288 293 293 292 295 294 296 296 296 297 298 298 300 300 297 300 298 297 302 303 304 308 305 308 306 303 297 296 290 293 294 297 296 294 297 300 302 301 302 302 302 300 298 295 290 295 287 288 286 286 293 294 296 297 299 302 297 298 297 289 294 301 300 299 297 296 295
300 300 300 300 301 301 302 302 302 302 302 303 302 302 303 304 302 298 297 294 288 291 294 288 292 295 296 297 298 296 297 297 297 295 300 302 299 301 303 305 307 307 308 304 300 300 295 292 288 288 289 288 285 286 296 296 301 303 303 303 302 301 294 296 291 289 292 288 286 286 286 283 289 298 304 308 307 306 303 297 292 299 300 299 295 293 293
300 300 300 300 301 301 301 302 302 302 302 303 302 302 302 305 305 302 298 294 291 286 293 297 298 295 295 296 298 296 294 292 294 297 296 299 299 301 303 306 308 308 306 302 300 295 292 289 287 287 286 287 293 289 287 294 294 300 303 303 303 303 303 299 293 290 291 288 286 285 283 286 294 298 303 307 307 306 304 297 289 297 299 298 297 294 294
300 300 300 300 301 301 301 301 301 302 302 302 300 300 301 306 303 301 297 296 295 290 298 300 300 294 299 298 297 296 297 293 296 290 291 294 298 300 302 305 308 305 303 301 298 293 291 290 289 291 292 294 289 287 293 292 290 293 298 298 301 299 296 295 291 289 290 289 287 285 287 286 296 301 303 305 306 306 303 289 287 296 299 299 297 295 294
300 300 300 300 301 301 301 301 302 302 302 303 301 300 300 306 306 304 300 297 292 293 299 302 299 298 297 296 297 299 301 300 299 298 295 297 297 298 300 303 301 304 306 295 295 291 290 290 287 287 287 295 296 295 286 292 289 290 291 293 293 293 292 293 289 290 290 288 288 289 289 296 302 302 304 303 306 303 290 285 291 298 299 299 298 297 297
300 300 300 300 300 301 301 301 301 302 302 302 302 302 303 307 306 305 301 297 296 291 299 302 304 301 301 304 304 303 302 301 299 294 292 292 296 300 301 301 301 294 299 294 296 290 289 289 295 292 289 291 295 288 295 290 289 295 295 291 292 290 290 291 291 289 288 289 287 287 290 296 301 303 304 305 301 290 288 296 302 300 299 299 299 297 298
301 300 300 300 299 300 301 301 301 302 302 302 302 298 300 305 307 306 300 296 296 294 298 301 301 298 302 300 299 298 300 300 300 298 294 290 299 300 297 291 298 299 296 298 290 294 289 287 291 296 290 290 294 298 292 292 298 294 293 296 290 291 288 287 288 289 290 289 286 285 283 292 303 302 301 303 292 293 300 301 301 302 300 299 299 299 298
301 301 301 300 300 300 301 301 301 302 302 302 302 299 299 307 308 308 306 302 297 292 297 305 304 302 304 304 304 302 301 298 299 298 301 302 304 301 289 288 295 296 291 293 288 290 292 289 292 291 295 294 295 295 289 290 294 299 299 296 297 300 288 288 289 294 286 287 285 285 292 298 303 302 293 300 301 303 303 301 299 301 301 300 299 297 297
301 302 301 301 301 301 301 301 301 301 302 302 301 300 298 304 306 308 307 305 296 293 298 304 305 305 308 310 309 308 306 304 306 307 303 298 304 301 299 300 300 299 300 301 296 293 297 296 298 293 291 293 297 291 295 289 287 294 301 299 289 298 296 296 289 294 291 289 292 297 301 302 304 304 302 303 305 305 304 303 301 300 300 301 298 297 297
302 302 302 301 301 301 301 301 301 302 302 302 301 300 297 301 303 307 306 299 302 303 304 304 307 309 311 311 312 310 310 311 311 311 309 305 299 304 302 304 299 304 305 305 298 298 298 296 292 297 294 295 293 292 294 293 291 294 291 299 297 300 299 299 295 292 297 298 299 300 300 302 302 305 305 303 303 304 304 302 300 301 301 301 298 298 298
301 302 302 302 301 301 301 301 302 302 302 302 302 299 298 300 302 302 303 302 299 297 303 308 306 297 302 303 307 310 310 310 310 313 317 314 299 298 303 303 306 306 304 306 307 300 299 298 298 300 292 297 299 292 289 289 290 296 294 295 299 302 303 299 293 296 293 286 298 298 298 301 302 302 303 304 304 303 303 302 301 301 301 301 301 300 299
301 301 302 302 302 301 302 302 302 302 302 302 302 302 301 300 302 303 300 294 297 297 292 296 299 304 307 309 310 309 309 311 313 312 311 311 308 302 300 305 310 304 303 305 309 305 298 294 297 296 292 299 299 291 297 293 292 298 292 294 296 295 304 297 297 296 291 289 296 298 300 301 302 301 300 300 301 302 303 303 302 302 302 301 301 301 299
301 301 302 302 302 302 301 302 302 302 302 303 303 299 298 299 303 306 305 304 304 302 295 293 299 307 309 307 304 306 310 311 310 311 311 310 309 309 308 309 308 309 308 307 308 301 297 295 296 295 295 294 304 295 295 302 297 300 296 294 299 300 302 292 295 292 294 296 297 298 299 299 300 301 302 302 301 301 301 301 301 301 300 300 300 300 299
301 302 302 302 301 301 302 302 302 302 302 303 302 302 301 301 304 304 304 304 299 295 297 293 298 303 305 303 306 308 309 310 311 309 309 310 310 310 310 309 307 307 306 304 304 299 299 297 297 295 300 296 303 300 300 298 298 293 294 298 302 299 293 296 294 289 288 289 293 297 290 290 296 299 300 301 302 301 300 300 300 300 299 299 298 298 298
302 302 302 302 301 302 302 302 302 303 303 303 304 303 304 303 306 308 311 309 304 296 296 296 298 301 306 302 306 307 308 309 309 309 308 309 309 310 310 308 308 306 304 302 295 297 297 295 295 296 296 302 299 295 301 301 300 296 295 297 300 297 298 297 292 291 289 296 298 300 298 297 298 299 300 301 301 301 299 298 298 299 299 298 297 296 296
301 301 301 301 301 302 302 303 303 303 303 303 303 303 305 307 309 311 312 312 310 304 301 302 303 303 295 300 306 305 307 308 308 308 308 308 308 308 308 307 306 305 305 301 298 298 297 296 297 299 297 303 301 294 297 291 290 289 294 299 299 300 302 301 300 300 299 300 300 300 298 296 298 300 301 300 301 301 299 299 299 299 298 298 297 297 296
301 301 301 301 302 302 302 303 303 303 303 303 302 304 303 308 313 313 314 312 311 308 299 295 291 293 306 304 303 304 304 306 306 307 306 305 306 306 306 306 305 306 305 299 298 294 296 297 295 304 305 306 298 295 291 293 290 292 298 299 300 301 302 302 303 300 297 301 301 301 300 299 300 300 301 301 301 300 299 298 298 298 298 299 298 297 298
301 301 302 302 302 302 303 303 303 303 303 303 303 298 296 294 305 313 309 312 313 308 301 301 294 299 297 303 304 302 303 304 304 305 305 305 305 305 306 307 305 305 298 298 298 296 297 294 295 297 302 302 298 295 294 292 289 291 296 298 298 299 299 300 302 302 301 301 301 301 301 300 300 300 299 300 300 300 299 298 299 299 298 298 298 298 297
302 302 302 302 302 302 303 303 303 303 304 302 301 302 304 306 311 310 307 306 308 306 300 296 293 293 293 297 302 305 304 304 304 304 303 306 303 306 305 305 302 304 299 297 297 297 295 296 294 299 299 301 299 295 295 292 288 289 295 296 298 299 300 300 300 301 302 301 300 297 297 297 299 297 295 299 299 300 299 298 299 299 298 298 298 298 298
302 302 302 302 302 303 303 303 303 303 303 304 305 303 303 303 303 304 306 309 309 305 308 297 290 292 292 296 303 303 303 304 302 303 298 304 303 304 298 305 305 303 304 299 295 293 299 295 294 294 299 303 294 293 293 289 291 295 296 296 297 298 298 299 300 300 300 300 300 295 293 295 296 298 299 299 299 298 298 298 298 299 298 297 297 297 298
302 302 303 303 303 303 304 304 304 302 303 302 304 309 313 306 308 304 310 310 308 311 305 296 290 291 291 300 297 300 304 299 298 300 293 301 303 303 297 301 301 295 299 297 297 297 298 296 295 294 298 294 296 292 287 291 295 295 296 297 297 298 298 298 298 298 299 299 300 299 299 298 299 299 299 298 297 298 299 298 298 297 296 296 296 297 297
303 303 303 303 304 304 304 303 306 307 306 307 308 311 308 300 305 309 307 308 304 296 295 294 295 291 290 292 290 296 302 301 296 298 293 296 304 298 298 294 294 293 293 304 295 295 293 295 299 293 291 296 291 287 288 292 293 294 295 295 296 297 297 295 296 298 298 299 298 298 298 298 297 296 296 297 297 297 297 297 297 296 295 295 296 296 296
302 303 303 304 304 304 307 308 308 308 306 304 306 310 305 306 304 308 310 313 310 301 293 292 293 291 292 288 288 291 302 297 300 300 298 296 297 300 299 294 290 293 301 296 292 297 291 298 296 289 293 289 287 290 291 294 293 293 294 295 296 297 296 296 296 297 297 298 298 298 297 297 296 296 296 297 297 297 296 296 296 297 296 295 295 296 296
303 303 304 304 308 308 303 301 307 307 307 308 307 307 304 306 312 314 313 310 312 313 300 294 293 293 295 291 293 294 300 291 299 296 296 293 290 295 295 292 288 292 292 292 292 291 294 302 294 289 289 287 288 294 295 295 294 294 294 296 297 297 297 297 297 297 296 296 296 296 296 296 296 296 296 296 296 296 296 295 295 295 295 295 295 296 296
303 304 306 303 302 295 295 299 309 315 307 305 306 308 310 304 298 301 303 301 306 306 300 301 293 298 299 297 290 298 299 293 299 292 292 295 292 290 293 291 290 291 286 289 293 300 296 293 290 288 287 293 294 295 295 296 296 297 296 297 297 297 297 297 297 296 294 293 293 294 294 295 294 295 295 295 296 295 296 297 297 297 297 296 297 297 296
304 308 305 304 301 295 295 305 316 308 309 309 309 300 296 298 296 291 293 296 295 293 297 296 293 297 297 295 295 301 299 293 292 295 290 296 292 287 292 287 289 291 286 287 290 299 289 289 289 289 287 291 292 293 296 297 297 297 297 298 298 298 298 298 298 296 295 294 294 296 296 294 294 294 296 295 296 297 297 297 297 297 297 297 297 297 297
307 300 297 297 295 299 307 310 308 307 307 298 300 296 291 295 291 289 294 291 291 293 295 291 298 298 299 296 293 293 302 298 291 290 291 292 298 290 291 291 290 289 284 285 287 297 289 286 288 288 286 290 291 295 296 296 296 297 298 298 298 298 299 299 298 298 298 298 298 297 298 298 297 296 296 296 296 296 297 298 298 297 297 297 297 297 297
301 301 302 297 303 304 306 308 310 306 300 295 294 293 291 289 292 293 292 289 289 290 297 298 298 296 299 299 298 293 300 305 303 300 293 289 297 297 290 286 291 287 284 284 289 291 290 288 288 287 287 292 293 295 296 296 296 297 298 299 299 299 299 299 299 298 298 297 297 297 297 298 297 297 297 297 297 296 296 296 296 296 297 297 297 297 298
298 296 298 299 300 302 306 307 301 296 294 295 290 287 289 290 292 292 292 287 288 292 295 297 292 296 294 299 297 298 296 302 298 295 293 288 291 290 287 289 290 286 283 288 292 291 289 285 286 286 291 294 295 296 297 296 296 297 298 298 298 299 299 298 297 298 298 298 298 298 298 297 298 298 297 297 296 296 296 296 296 296 296 297 298 298 298
301 302 301 299 301 301 301 293 295 294 288 287 286 285 288 286 288 288 289 292 297 295 295 303 301 301 302 303 299 301 296 302 295 294 292 288 292 292 288 287 287 283 286 293 290 286 284 285 286 289 294 294 296 296 297 297 297 298 298 299 299 300 299 298 297 298 298 299 299 299 298 297 297 297 297 297 296 296 296 296 296 296 296 297 297 298 298
304 304 301 298 294 293 294 285 294 290 287 288 285 281 285 284 287 289 287 290 294 293 299 295 297 296 291 298 296 292 295 297 296 294 291 292 291 286 286 284 285 289 294 289 287 284 285 288 290 293 295 296 297 297 297 297 297 297 298 299 300 300 299 299 299 298 299 298 298 297 297 296 296 297 297 297 296 295 295 296 296 297 298 298 297 297 298
298 295 294 292 288 291 289 282 292 288 284 286 288 287 287 284 287 290 290 294 296 294 298 298 298 296 292 299 298 296 294 291 294 291 286 290 287 288 286 285 289 290 288 284 286 286 287 287 293 294 295 295 296 297 298 298 298 297 298 298 299 299 300 299 298 297 296 296 296 297 296 296 296 296 296 296 297 297 296 296 297 297 297 297 297 298 298
293 292 290 286 282 287 288 285 287 285 289 290 289 291 291 292 292 292 298 299 295 298 295 298 297 297 294 296 292 291 293 293 290 289 290 291 286 284 289 293 291 286 285 286 283 283 285 289 293 294 296 296 297 297 298 298 298 299 298 297 297 297 297 296 296 296 296 296 296 296 296 296 296 296 296 297 297 297 297 299 299 298 298 297 296 296 295
294 294 293 290 285 288 291 285 286 289 292 293 294 295 294 296 297 298 299 298 297 299 299 300 298 298 295 293 293 292 294 294 288 289 292 287 285 287 291 287 283 284 282 282 283 285 288 293 295 296 297 297 297 298 298 298 299 298 298 297 296 296 296 296 296 296 296 296 296 296 296 296 296 297 298 297 297 298 298 299 299 298 297 296 295 294 294
289 293 292 284 282 287 285 288 293 294 295 295 296 297 298 299 297 296 298 300 300 301 299 298 295 296 294 298 297 291 292 292 288 288 291 288 289 286 285 284 284 286 286 284 285 291 293 295 296 297 298 298 298 298 298 298 298 298 298 297 296 296 296 296 296 296 296 296 296 296 297 297 297 297 297 297 297 297 298 298 297 297 296 295 295 295 295
295 291 288 287 289 289 289 292 292 290 293 295 296 297 297 297 295 297 301 301 300 299 300 298 295 295 291 292 291 291 288 290 285 285 289 287 284 280 282 281 282 282 286 288 291 294 295 297 298 298 298 298 298 298 298 299 298 298 298 297 296 297 297 296 297 297 297 298 298 298 297 298 298 298 297 297 296 296 298 298 297 296 296 295 295 295 295
291 290 291 290 289 290 293 294 292 290 292 294 295 295 296 296 296 298 302 299 301 300 300 298 297 293 292 290 287 289 288 290 289 288 286 284 284 285 285 282 283 284 286 291 294 296 298 299 299 298 298 298 298 298 298 298 297 299 298 298 298 298 298 297 297 297 298 298 298 298 298 298 298 297 297 296 296 297 297 297 297 296 296 296 296 296 296
293 291 292 296 290 289 291 287 288 288 289 292 294 295 296 295 296 297 301 300 300 298 295 292 292 291 290 288 287 284 286 292 289 286 286 285 288 286 284 283 285 291 294 297 298 298 299 299 299 298 298 298 298 299 299 298 299 298 298 298 298 298 298 298 297 298 298 298 299 294 298 298 299 300 299 298 297 297 296 296 297 297 297 298 298 297 297
290 287 288 292 295 294 294 294 295 294 294 295 295 297 297 296 298 300 302 300 298 294 292 294 292 289 287 285 287 290 292 289 286 287 285 288 290 287 286 288 292 295 296 296 297 299 299 300 300 299 299 298 299 299 299 299 299 299 298 298 298 298 298 298 297 298 298 298 298 298 298 299 300 300 300 299 298 297 295 295 296 297 297 298 298 298 298
Wind_Speed
9 8 7 5 3 2 5 2 3 5 8 6 3 3 4 6 8 4 10 5 15 13 9 10 9 11 10 12 15 14 13 10 9 11 7 7 7 7 4 5 6 6 6 5 9 12 10 15 14 13 16 14 18 12 23 20 20 20 14 18 11 6 3 9 11 12 15 18 17 20 21 20 19 17 14 14 15 16 12 9 8 7 6 8 5 1 2
8 6 5 3 5 6 3 3 5 6 6 6 6 4 5 5 5 2 4 9 11 11 10 11 10 10 11 13 14 13 13 11 10 9 8 6 5 6 5 6 6 7 6 6 9 9 4 12 14 13 17 10 18 17 21 22 15 16 10 10 12 7 7 10 10 9 10 13 14 16 19 18 12 12 15 17 16 21 16 12 3 4 9 10 9 3 3
8 7 8 7 7 2 2 4 5 6 6 6 5 4 4 4 3 2 4 8 11 10 9 9 8 10 12 13 16 14 12 9 10 10 10 9 8 6 7 7 8 6 5 7 11 10 6 6 10 7 8 4 17 16 22 24 15 15 15 12 13 7 6 9 10 11 11 12 14 16 17 18 12 15 19 19 17 14 11 9 8 6 8 13 5 5 7
9 8 7 6 3 2 4 4 6 7 6 7 5 4 4 2 4 1 3 4 5 10 11 11 8 7 9 9 11 11 10 8 11 6 6 7 10 7 7 8 8 8 7 9 10 10 9 11 8 8 1 4 12 12 18 19 14 14 16 16 10 6 7 9 10 11 12 12 10 11 11 12 15 18 20 20 20 18 13 8 8 10 8 9 8 16 14
9 6 3 4 4 5 6 6 7 6 5 5 5 4 4 3 4 1 4 6 8 10 9 10 9 7 8 5 6 11 11 9 2 4 5 1 5 8 9 9 8 7 9 9 9 10 12 10 12 7 2 8 7 15 18 18 18 17 16 18 7 8 8 12 12 13 8 6 14 15 19 18 19 20 19 19 20 19 14 8 9 10 8 4 6 20 21
10 9 8 7 6 7 8 7 7 6 5 5 3 4 3 4 1 3 5 4 6 8 9 12 10 10 9 7 10 10 10 11 5 6 5 3 5 4 6 11 13 11 9 4 3 9 10 8 6 7 5 7 11 12 19 18 13 15 13 15 7 8 5 10 5 7 11 12 13 16 19 21 18 17 17 19 19 14 9 5 9 5 2 6 11 17 19
10 10 8 8 9 8 6 6 6 6 6 6 4 4 3 3 4 6 6 2 3 7 8 12 12 11 10 8 9 9 10 10 2 1 3 2 6 10 5 8 11 13 12 9 8 12 5 2 7 3 8 14 6 7 14 12 15 18 13 14 7 4 7 7 4 3 3 8 13 15 18 15 14 15 14 14 14 16 3 10 9 14 15 17 13 11 16
11 9 8 8 8 7 7 7 7 6 9 6 6 6 4 2 3 3 7 6 9 9 7 8 10 10 10 7 8 9 9 10 7 5 2 3 6 7 12 12 11 11 13 14 12 9 9 4 1 7 4 1 4 5 7 8 10 14 15 11 10 8 5 12 7 4 3 9 13 10 12 10 13 14 14 12 10 9 17 15 13 19 19 19 19 16 9
11 11 10 9 9 8 8 9 8 8 8 5 4 5 5 4 3 3 6 8 5 5 6 8 9 8 8 7 8 9 8 7 4 8 7 10 9 7 11 12 12 12 13 14 15 12 3 6 9 10 7 5 8 7 7 12 12 16 13 11 9 9 2 4 9 3 4 8 11 7 6 2 3 1 4 8 8 7 10 13 8 13 17 21 19 14 9
12 11 10 10 10 9 9 9 9 8 7 5 5 5 2 5 4 5 4 4 5 6 6 8 6 7 5 6 9 5 5 5 4 4 7 14 15 14 13 14 10 10 13 11 9 4 5 7 4 5 5 2 6 10 11 8 11 9 11 9 9 9 5 2 3 7 4 10 7 6 3 7 5 4 8 15 19 18 14 12 12 14 18 16 10 10 11
13 11 10 10 9 9 11 11 12 11 8 6 6 6 7 7 7 7 5 5 5 7 4 7 9 1 5 7 7 4 5 5 6 6 3 4 9 14 15 15 14 8 9 7 4 1 4 2 11 5 5 3 5 8 8 15 12 11 8 8 7 11 6 5 7 4 3 9 4 12 4 6 3 3 5 5 8 12 14 11 12 9 5 4 7 16 17
13 11 10 10 11 11 11 12 12 12 10 7 7 8 6 6 6 5 4 4 4 6 5 4 9 3 6 7 8 7 8 8 9 7 9 8 10 8 7 3 6 4 4 5 6 4 10 8 12 7 3 2 5 9 12 14 13 12 10 10 7 9 7 3 6 4 3 4 3 3 10 2 1 4 10 4 6 14 19 15 14 14 16 20 21 18 17
13 12 11 9 9 11 11 12 13 13 12 9 7 7 5 5 4 5 5 6 5 6 8 8 13 10 4 7 6 6 6 5 5 12 14 11 7 5 2 4 6 1 2 10 4 11 4 0 6 7 7 6 5 7 14 16 14 15 9 11 10 5 5 4 5 2 5 5 4 6 2 3 2 5 4 9 11 14 18 16 14 13 12 17 19 18 17
13 12 11 11 10 10 11 12 13 13 13 11 8 8 7 6 4 5 4 3 6 5 6 10 11 10 6 2 8 3 4 5 4 3 7 4 4 3 5 4 5 5 6 7 5 10 2 4 4 2 3 4 4 6 6 14 12 13 14 12 9 11 7 5 4 5 3 5 2 2 1 3 4 8 7 8 7 5 6 8 8 9 10 13 18 19 19
13 13 12 11 11 11 11 12 13 14 13 13 7 7 7 6 3 3 4 4 5 9 8 3 6 7 7 2 7 6 5 5 5 3 6 3 4 5 2 4 5 4 8 3 3 4 4 4 2 4 4 2 2 2 6 3 7 15 15 10 5 5 6 7 5 3 5 8 6 2 1 1 3 1 6 8 8 10 10 11 7 7 12 13 16 17 16
13 13 12 11 11 11 11 12 13 13 14 14 7 6 7 6 5 5 5 5 5 6 4 11 8 7 7 5 7 4 3 3 3 2 3 1 4 5 6 6 3 5 7 3 4 3 1 2 2 2 3 5 4 5 2 4 2 7 10 11 4 11 10 4 3 2 5 5 4 3 4 1 0 6 5 5 5 10 12 7 5 7 11 11 14 15 15
13 12 12 13 12 12 12 12 12 13 14 14 8 7 6 4 3 3 6 5 4 6 15 11 6 3 3 2 6 6 7 3 7 3 0 2 6 7 2 5 5 3 2 5 5 2 3 3 2 2 3 1 4 3 6 6 6 3 7 9 5 9 5 2 2 0 2 4 4 3 2 1 2 5 1 3 5 5 3 4 6 10 11 12 13 15 15
14 14 13 12 12 12 13 12 13 13 13 13 9 7 8 6 4 6 5 6 5 6 5 8 8 4 3 0 2 6 3 2 7 3 2 5 4 4 5 8 5 5 4 4 2 2 3 2 1 1 2 1 2 3 4 6 6 5 6 4 1 4 3 1 2 2 2 8 3 4 2 1 5 5 5 6 5 3 4 3 6 13 13 13 13 14 13
14 13 13 14 12 12 13 12 13 13 13 14 11 8 5 3 3 4 6 5 5 5 10 14 4 3 7 4 5 4 5 5 3 4 2 4 1 6 1 6 1 3 4 3 3 2 1 1 1 1 0 2 1 2 3 4 3 5 5 4 4 3 2 2 3 2 0 3 6 3 3 2 3 3 5 7 2 3 3 5 11 14 15 13 13 15 14
15 14 13 13 13 12 12 13 13 13 13 14 10 7 9 9 5 4 5 6 4 8 12 12 5 8 8 1 3 4 4 1 2 5 3 2 7 5 6 1 5 2 4 6 3 5 2 2 4 3 1 1 1 3 2 4 3 4 1 2 3 2 2 1 3 3 1 0 5 2 3 1 3 2 1 2 2 4 8 12 13 13 14 15 14 12 12
15 15 14 13 13 13 12 13 13 13 13 13 11 8 8 4 3 3 2 6 6 7 6 2 4 10 9 7 6 6 6 5 5 6 4 6 3 2 1 0 2 1 1 3 3 3 3 4 6 4 6 4 2 7 3 5 2 11 9 3 4 3 2 2 2 2 4 5 2 2 3 6 2 6 2 7 11 11 12 12 14 13 13 13 12 12 12
15 16 14 14 13 13 12 12 13 13 13 12 13 8 7 5 5 5 3 1 5 7 6 13 14 14 14 11 9 7 6 7 6 2 6 5 5 2 3 4 6 3 4 6 0 3 2 2 4 2 3 6 6 7 9 6 4 5 8 6 3 5 4 3 6 4 2 3 5 6 6 8 7 9 12 12 12 12 13 13 13 14 12 12 11 14 14
16 16 16 15 14 14 13 13 14 14 13 12 10 6 7 8 7 4 5 7 7 10 12 13 13 13 13 12 10 3 5 4 4 3 6 6 4 5 6 5 6 5 4 4 6 6 5 1 1 4 4 3 4 6 9 2 6 6 4 6 8 10 15 13 13 11 15 13 9 7 8 9 10 10 12 13 14 14 13 14 13 12 12 11 13 15 15
16 16 16 16 15 15 14 14 15 14 14 12 9 7 7 7 8 7 6 7 7 7 8 8 8 2 5 6 4 4 3 5 6 3 1 5 5 4 6 8 7 5 6 5 4 6 4 4 5 4 3 4 6 5 4 4 4 10 9 7 7 6 7 7 9 13 6 6 5 9 10 11 12 12 12 12 12 11 11 11 11 12 13 14 14 15 16
16 16 16 16 16 16 15 15 15 15 13 13 11 9 9 9 8 7 6 5 3 4 4 3 3 5 4 6 5 6 7 5 4 5 4 5 6 5 5 6 5 6 6 5 4 4 0 2 3 1 3 5 7 3 8 5 6 2 6 6 5 9 13 13 10 7 5 9 9 8 10 11 11 10 10 12 12 12 12 11 12 14 15 14 16 16 16
16 16 16 16 16 15 15 16 16 15 15 14 12 9 8 8 8 7 7 7 7 5 3 3 5 4 5 5 9 8 7 7 8 7 6 6 5 4 3 2 1 1 3 5 4 5 0 1 2 3 2 3 7 4 6 8 10 12 10 8 9 6 2 5 7 11 12 13 9 8 10 11 11 12 11 10 11 13 14 15 16 16 17 17 16 14 14
17 17 16 16 16 17 16 16 16 16 16 15 10 8 9 9 9 9 7 6 7 2 2 1 4 6 7 10 7 8 9 8 6 7 8 9 7 5 3 4 3 2 3 2 4 1 2 5 5 7 6 4 3 6 5 7 8 6 8 11 7 8 11 13 12 11 9 9 11 13 10 8 8 11 12 13 13 14 15 15 16 16 17 16 17 15 15
17 18 17 17 17 17 17 17 17 17 16 17 12 10 10 10 9 9 9 6 5 3 4 4 3 4 4 8 8 9 9 8 8 8 8 8 8 7 6 6 4 5 4 4 0 4 6 5 6 1 1 5 4 5 8 9 10 9 10 9 11 11 8 1 3 7 8 12 17 8 10 12 9 12 13 14 13 14 16 15 15 15 15 16 18 19 17
17 18 18 17 17 18 17 18 18 17 18 15 9 10 10 12 10 9 7 3 3 6 5 8 3 3 4 7 6 8 9 9 9 9 8 9 9 8 7 7 6 4 3 5 4 3 4 4 4 4 3 4 5 5 6 5 8 8 7 9 11 9 11 10 15 18 16 18 12 13 13 14 14 13 13 13 12 14 15 15 14 15 15 15 15 16 17
17 17 17 17 18 18 18 17 18 16 16 9 7 6 4 4 4 4 2 2 4 4 3 4 1 1 1 5 6 6 8 8 8 9 10 9 9 8 8 7 6 6 6 5 4 4 3 3 2 3 3 6 4 2 1 7 8 8 6 7 8 9 14 14 9 13 14 13 12 13 15 15 13 13 12 12 13 14 14 15 15 15 15 15 16 16 15
19 19 18 19 18 18 18 18 16 15 13 7 6 3 2 2 4 6 5 3 3 5 3 4 0 1 2 1 4 7 6 6 7 7 8 7 8 8 7 6 7 6 4 4 4 3 1 3 1 1 1 7 4 2 7 9 9 6 7 7 8 12 13 13 14 15 15 14 15 15 16 14 11 13 14 13 14 14 13 13 14 13 16 16 16 15 15
19 19 19 19 18 17 18 17 15 12 7 7 6 3 3 2 3 4 4 5 5 6 3 5 1 0 1 1 3 4 5 5 2 4 5 5 7 4 8 6 7 6 5 3 2 2 4 3 2 4 3 7 5 6 7 10 9 7 7 8 8 9 10 12 13 14 15 15 18 17 15 13 13 13 13 14 15 15 15 16 16 16 15 15 14 14 15
20 21 20 18 18 18 17 17 15 9 7 9 17 20 19 20 18 14 8 6 5 5 4 3 2 1 0 5 3 1 5 5 2 2 6 5 4 1 4 3 4 4 3 1 3 3 2 2 2 3 8 9 4 4 9 8 9 9 8 7 8 9 9 8 10 12 13 13 12 15 16 14 14 15 16 16 16 16 16 17 17 15 15 16 17 16 15
22 21 20 18 17 17 16 14 14 13 12 7 4 3 3 8 9 8 5 5 4 6 2 3 1 0 2 1 2 3 6 6 5 5 3 4 5 3 3 2 3 1 4 2 2 3 2 0 3 3 3 5 6 4 5 7 9 9 8 8 8 9 10 10 10 11 10 9 9 12 15 15 14 15 15 16 16 16 16 15 16 17 17 16 16 15 15
21 21 19 18 17 15 16 13 7 5 4 5 1 3 5 3 2 4 6 3 4 1 3 2 2 0 1 1 1 4 4 5 5 5 3 3 4 5 3 3 2 1 2 5 2 3 2 3 2 1 6 7 4 4 3 8 8 7 7 9 8 9 10 11 10 9 10 12 13 14 16 17 17 16 16 16 15 15 16 16 16 17 16 14 15 15 14
22 20 19 16 19 13 7 5 4 4 3 1 3 4 7 6 5 5 7 6 4 4 4 2 3 2 0 1 3 1 4 3 2 2 5 1 4 4 3 1 2 3 3 2 3 2 3 2 2 4 4 4 5 3 5 7 8 7 7 9 8 9 9 11 12 13 13 13 16 16 17 17 18 18 16 16 16 16 16 16 15 15 16 15 15 14 13
22 19 19 17 9 3 3 2 0 1 3 4 8 8 8 6 4 5 4 4 6 5 5 4 4 3 4 3 1 1 3 1 2 1 3 2 3 1 1 2 4 1 0 2 2 3 4 6 5 6 7 6 4 6 7 6 7 8 8 8 8 9 10 11 13 15 16 17 18 16 16 17 17 16 16 15 15 15 15 15 15 15 16 15 14 13 14
22 17 7 3 3 2 2 1 2 4 6 10 8 4 3 4 2 3 3 3 3 5 3 5 3 2 3 3 2 3 5 2 2 0 2 1 2 2 1 1 2 1 2 2 3 3 4 3 3 5 5 6 6 5 6 6 7 7 8 8 9 10 11 13 15 16 18 17 15 16 17 17 16 15 16 16 16 15 13 12 13 13 13 12 13 13 13
13 3 3 2 2 1 1 3 5 4 6 5 4 2 2 2 2 3 3 4 2 4 3 5 2 1 1 1 4 2 3 3 2 2 2 2 2 2 0 1 2 1 3 2 3 4 2 5 4 5 5 5 6 6 5 6 6 7 7 8 9 10 12 13 14 16 15 15 16 16 16 16 17 16 14 15 14 14 14 15 14 14 14 14 13 13 14
1 3 1 1 1 3 7 4 4 8 5 3 3 2 2 2 2 2 0 2 3 1 1 2 4 5 3 5 1 4 2 3 4 2 3 3 2 2 1 1 2 2 0 1 3 4 3 2 3 3 4 4 5 6 7 7 8 7 8 9 11 12 13 13 13 10 12 13 14 14 14 14 14 14 14 14 14 15 15 14 14 14 13 13 12 12 13
7 6 4 2 5 6 6 9 8 6 3 3 2 1 2 2 2 2 1 3 4 2 2 3 3 4 3 4 3 3 3 2 3 1 1 3 1 3 0 2 1 0 1 1 1 2 1 2 3 4 5 6 7 8 7 8 8 9 9 11 12 12 14 13 13 12 15 15 13 12 13 16 16 15 14 15 13 13 12 12 12 13 16 16 15 14 13
7 5 5 8 9 9 8 4 3 2 3 1 2 3 2 3 1 2 2 3 3 1 5 5 2 3 6 1 3 3 3 1 2 2 1 1 0 1 1 1 1 1 1 2 2 1 1 2 4 5 6 9 9 9 9 9 9 11 12 12 12 13 14 13 14 14 14 14 13 12 12 15 16 14 11 11 12 11 13 12 12 13 12 11 11 11 12
19 12 5 5 3 3 2 3 3 2 2 1 1 2 2 3 2 3 3 3 2 4 3 1 4 4 5 2 4 3 3 0 2 1 0 2 1 1 1 1 1 1 2 2 2 1 0 0 5 7 8 10 10 10 10 11 11 12 13 12 12 13 14 14 15 15 14 13 15 12 12 11 10 9 10 10 11 11 10 9 10 10 11 10 11 12 11
8 5 3 2 2 3 1 3 2 1 1 2 2 2 2 3 3 3 3 3 4 5 4 5 5 6 3 0 2 3 1 2 2 0 2 0 1 1 0 0 2 3 1 3 2 1 1 1 5 10 10 10 9 11 11 12 13 13 13 13 12 14 14 13 12 13 13 11 12 11 11 12 13 12 12 12 12 13 12 12 11 11 10 9 9 9 10
3 2 2 1 1 1 2 2 1 2 3 3 3 4 3 5 5 4 6 2 4 5 5 5 5 6 3 4 2 2 2 1 1 1 1 1 1 2 1 2 1 1 2 1 1 3 2 4 9 11 12 12 12 13 12 13 13 13 13 14 14 13 14 15 13 12 12 12 13 12 12 12 12 12 12 12 12 12 13 13 12 12 12 12 12 11 11
2 2 3 3 2 3 2 2 2 3 3 3 4 6 7 8 7 8 4 3 5 4 5 4 5 5 3 3 3 1 2 2 2 1 0 0 1 1 2 1 1 2 2 1 2 3 4 7 9 11 13 14 14 14 14 13 13 13 14 14 14 14 14 14 14 14 13 13 12 13 13 12 12 12 12 12 12 13 12 11 11 11 12 12 12 12 12
3 2 3 3 4 3 2 4 4 3 4 6 7 8 8 8 8 4 3 3 4 2 3 4 5 3 2 4 2 1 2 0 1 1 1 0 1 1 0 1 1 1 1 1 2 2 6 8 10 12 14 14 15 14 14 14 13 14 13 12 13 13 15 15 15 15 15 15 14 14 13 13 13 13 12 12 12 11 12 12 12 12 12 12 13 13 13
3 2 3 4 4 4 7 5 6 7 7 9 9 8 8 6 8 4 5 4 3 3 4 5 5 3 2 3 4 3 2 2 2 1 1 1 0 1 0 1 1 2 2 3 3 5 9 11 12 13 14 15 15 15 15 14 14 15 15 15 16 15 15 16 15 14 15 15 14 13 12 13 12 12 12 12 12 12 12 11 12 12 12 13 13 13 13
3 2 3 3 3 4 5 7 9 10 8 8 9 10 8 8 8 5 2 3 3 4 4 6 3 2 2 3 3 1 2 2 1 1 1 1 1 1 1 1 2 2 1 3 4 8 9 11 13 14 15 16 15 15 15 15 16 15 14 16 15 14 15 14 15 15 13 12 12 12 12 12 12 12 12 12 12 12 11 12 12 11 12 13 13 12 12
3 3 2 3 5 6 8 8 8 8 9 11 10 8 8 8 6 7 3 4 4 4 4 4 1 2 2 3 1 1 1 2 1 2 2 2 2 2 2 2 2 3 2 2 5 9 10 12 13 14 15 15 15 14 15 14 14 13 14 14 14 14 14 15 15 15 13 12 12 12 12 11 11 11 12 12 12 11 12 12 12 12 12 12 12 12 11
2 3 4 7 7 5 6 9 9 8 7 9 8 9 9 8 7 6 5 3 5 5 4 4 3 3 2 3 1 2 1 1 2 2 2 3 2 2 2 2 3 0 7 6 8 9 11 12 12 13 14 15 14 15 15 14 13 14 15 14 14 14 14 15 15 14 13 13 12 12 12 11 10 11 11 11 12 12 12 12 12 12 12 10 10 11 11
3 5 5 6 10 12 11 10 9 9 9 9 9 8 7 7 7 5 5 5 5 5 6 4 3 3 1 3 2 1 1 0 2 2 3 2 1 2 2 2 3 4 4 6 9 9 10 10 11 13 14 14 14 14 15 14 13 14 15 15 14 14 14 14 14 13 13 12 12 12 11 11 12 11 10 12 12 11 12 11 11 12 11 10 10 9 9
Wind_Direction
330 325 318 313 298 79 102 356 274 274 280 266 286 330 250 229 246 347 316 198 176 181 203 204 212 224 237 245 250 257 257 260 255 263 270 269 235 256 269 282 270 232 242 259 270 258 256 252 195 197 210 205 220 201 210 200 193 195 193 195 165 202 214 196 191 201 203 200 190 196 225 226 208 196 223 217 199 201 221 210 221 219 219 224 219 165 79
348 351 9 56 96 111 104 244 280 270 276 303 303 250 254 265 278 327 275 270 199 195 201 202 214 223 234 236 247 237 247 242 238 242 267 255 243 251 281 288 261 274 263 270 273 265 278 273 219 188 205 213 201 217 204 201 199 196 166 195 149 196 204 199 180 190 188 198 189 191 212 226 220 200 207 235 216 191 211 225 180 238 232 241 225 147 177
26 51 69 78 84 86 333 278 295 306 314 306 314 294 306 306 293 257 277 225 208 211 214 214 204 221 226 225 233 237 232 239 250 248 234 241 256 254 264 267 291 277 278 285 271 254 247 313 230 219 225 221 196 217 210 198 203 192 154 200 148 213 171 195 187 188 189 194 193 189 191 204 202 212 201 218 238 212 185 209 189 217 213 232 216 101 104
58 69 65 63 19 312 275 310 310 315 316 300 277 292 300 228 281 237 220 217 228 244 258 282 289 285 282 267 247 246 246 236 248 256 262 306 308 310 291 297 296 276 274 241 249 251 251 229 250 171 280 238 194 203 207 189 195 185 156 195 162 205 182 213 205 201 196 209 207 188 198 193 210 206 206 200 223 223 207 180 197 204 196 217 133 141 132
51 41 36 6 337 341 333 321 318 311 305 295 303 293 242 319 281 204 161 169 220 232 237 247 242 254 259 260 252 239 242 252 156 67 258 166 297 284 269 262 251 235 225 250 259 260 248 231 235 205 134 254 217 197 201 183 200 171 169 195 184 201 200 203 212 222 213 234 210 197 199 201 207 204 209 206 212 222 215 205 210 192 221 178 110 139 143
30 23 17 9 359 340 334 330 318 322 308 314 293 283 251 255 213 305 297 276 194 212 231 225 232 241 236 259 290 272 247 243 229 154 210 257 235 265 232 234 240 249 241 229 266 264 249 249 213 154 101 272 234 209 184 188 160 140 184 183 198 192 222 194 176 220 225 226 259 211 198 211 202 206 201 204 208 229 225 213 227 160 166 124 161 144 140
12 6 358 358 340 321 328 336 337 329 322 315 295 296 251 235 284 270 320 279 282 224 233 219 227 232 236 261 258 266 262 244 135 330 328 300 234 211 256 263 236 229 238 238 246 247 246 248 135 133 172 214 248 203 170 173 159 177 181 190 202 202 216 133 143 100 244 269 271 228 198 197 200 208 219 216 196 210 183 45 62 90 104 128 136 132 130
0 358 353 344 330 346 340 342 344 346 328 294 265 246 277 296 332 326 330 314 288 284 288 253 221 228 229 242 250 258 254 263 274 262 246 254 257 225 244 248 255 245 230 223 229 245 247 262 195 152 149 289 274 274 212 134 201 190 187 178 181 232 164 138 147 165 213 262 278 288 203 197 200 205 219 220 216 143 99 95 97 101 103 110 112 105 86
4 0 356 355 357 348 346 348 349 341 338 293 256 279 251 282 259 291 314 308 292 277 292 276 221 229 206 228 251 259 270 290 294 277 251 247 258 265 250 241 243 244 242 233 233 242 298 358 274 192 172 192 206 210 207 188 183 195 173 193 149 205 89 173 168 193 252 256 219 341 305 122 44 278 334 265 213 144 88 104 116 116 127 128 124 122 132
5 5 6 6 356 354 353 351 353 354 322 281 284 270 237 291 312 289 245 275 304 303 273 239 220 225 228 233 251 245 267 269 299 299 264 246 245 249 255 261 251 238 243 259 256 41 353 41 30 288 94 40 311 295 302 265 190 190 180 169 178 173 161 150 162 195 169 241 83 21 357 98 110 40 26 35 69 82 82 92 113 121 131 134 146 152 135
2 6 5 1 358 0 2 356 359 0 344 326 324 311 329 358 334 331 322 291 289 304 334 282 238 299 315 244 239 215 244 251 225 231 293 282 249 237 244 244 241 231 230 251 340 217 152 75 230 169 94 60 264 278 265 291 214 197 172 169 181 172 158 161 195 193 146 19 16 129 5 174 136 45 309 350 58 79 83 66 90 99 95 97 106 127 131
357 358 3 359 360 360 357 356 354 358 348 325 312 306 338 346 321 312 313 304 313 15 9 304 294 214 227 267 268 216 232 220 215 214 257 269 288 299 274 218 184 203 178 303 287 55 15 266 209 122 81 303 313 313 292 275 194 189 190 169 171 144 150 197 174 195 132 92 7 159 192 133 309 5 320 56 131 91 85 82 74 84 91 95 104 121 133
359 354 353 358 352 353 353 351 352 351 354 338 323 303 329 341 318 333 313 316 308 334 334 311 305 295 219 242 272 284 239 262 213 210 220 247 288 230 224 209 166 150 355 302 233 122 169 0 45 67 77 56 11 323 315 274 194 191 172 169 181 159 146 193 188 163 94 117 178 197 137 93 136 148 290 107 113 101 89 75 71 77 95 112 118 130 132
359 355 352 352 351 348 349 348 348 348 348 347 316 317 322 331 340 329 334 328 308 294 288 295 294 296 345 184 214 225 0 329 316 290 280 332 257 352 271 145 103 11 313 271 100 142 173 35 45 290 98 38 58 21 309 310 214 198 176 177 169 183 181 175 194 201 155 107 73 58 56 142 125 145 150 166 142 164 128 107 74 95 115 122 126 127 125
355 353 351 349 349 346 348 347 347 348 346 343 320 308 310 308 282 301 302 292 295 306 275 248 339 345 331 242 59 33 346 334 303 2 49 81 43 226 269 6 60 302 296 334 98 133 135 150 164 133 93 17 110 201 261 292 68 38 26 3 181 174 206 162 209 161 149 131 123 110 65 282 228 221 114 50 65 89 113 107 96 83 100 118 122 127 130
354 350 346 345 346 346 346 348 346 346 346 344 324 317 306 305 300 274 281 286 308 299 333 6 19 356 344 3 38 348 332 295 287 70 320 155 124 69 359 334 324 278 298 88 88 55 42 79 107 187 153 155 110 100 260 189 108 6 24 10 353 85 58 52 214 141 161 152 149 151 155 6 197 200 163 132 99 136 115 101 119 149 138 137 139 135 135
350 346 343 340 345 342 343 343 345 345 347 350 334 321 300 297 260 290 307 295 280 277 282 317 27 86 314 3 358 358 2 310 346 319 117 84 114 134 254 308 322 308 323 64 63 76 67 80 64 82 73 110 172 175 161 156 104 40 24 6 350 81 59 107 104 37 160 154 162 118 49 141 130 115 86 156 28 323 231 201 180 165 158 151 144 143 144
346 343 339 336 340 339 337 340 340 342 344 345 330 314 291 290 290 291 285 276 293 285 286 359 355 15 341 338 322 293 270 318 269 280 196 188 148 161 174 191 175 191 64 63 54 62 62 50 68 107 116 213 286 216 165 139 120 153 122 149 305 51 64 47 114 101 50 115 89 98 103 53 147 146 132 53 2 340 183 224 121 155 146 148 146 146 146
346 341 339 332 329 333 334 334 334 338 344 344 335 305 277 283 273 285 293 295 286 277 301 309 323 193 236 271 296 251 241 211 277 322 10 352 10 132 243 53 18 107 248 123 109 65 91 84 56 66 20 144 213 117 92 115 118 119 115 107 71 41 65 28 63 70 176 129 118 95 92 4 329 78 23 31 278 201 151 84 123 134 138 140 144 140 143
345 344 339 332 328 327 329 328 330 336 338 340 338 319 298 293 287 305 300 302 304 290 291 280 286 303 310 65 329 10 345 2 21 20 341 227 247 246 108 32 290 57 150 131 174 146 136 169 194 188 178 273 56 334 149 41 34 93 156 75 78 110 84 102 97 118 208 21 99 129 138 190 278 149 166 337 286 88 113 121 116 126 128 134 135 133 121
342 339 340 338 335 328 323 321 325 328 332 329 334 312 309 321 290 358 356 309 298 296 288 262 320 304 305 337 356 322 339 26 11 342 341 324 72 305 261 13 118 185 144 200 164 175 184 157 209 192 165 174 82 14 118 111 354 35 83 103 92 49 126 117 56 340 181 144 130 91 66 110 17 306 77 56 88 116 114 123 121 122 130 129 124 112 120
341 336 336 338 331 328 320 321 323 323 325 328 328 307 298 317 336 18 348 92 265 250 266 304 304 288 283 286 292 307 11 16 20 38 326 335 302 24 53 33 60 21 42 351 337 126 276 128 211 119 134 132 170 171 175 152 144 195 153 191 113 20 90 86 115 360 2 86 105 97 72 93 83 86 94 102 107 110 114 116 124 128 127 124 116 119 121
335 336 334 332 329 324 326 324 324 322 323 328 326 313 308 314 316 345 310 292 265 257 260 268 271 270 254 253 256 317 2 46 353 45 355 354 323 87 48 11 42 24 53 24 12 349 340 239 220 132 164 130 162 130 186 225 127 140 89 34 109 114 111 105 93 82 86 71 72 94 96 89 90 96 97 94 96 102 111 119 123 128 126 126 123 126 125
330 332 332 330 327 324 323 324 320 320 317 320 317 310 300 302 302 307 292 262 260 292 275 226 254 55 40 44 35 19 27 58 32 41 84 317 349 6 59 28 354 8 37 11 339 328 18 354 20 323 75 37 340 168 142 106 90 104 112 109 94 123 155 108 101 159 115 82 73 92 100 104 101 99 100 96 102 107 113 119 123 127 128 123 125 126 130
326 326 326 327 325 322 319 318 315 311 313 310 307 282 277 268 249 241 276 320 320 334 324 81 46 4 42 29 13 37 32 13 32 30 35 35 24 21 28 17 350 353 356 340 317 300 332 315 182 96 72 37 335 74 49 99 103 150 117 109 138 96 98 96 103 101 93 133 127 108 97 101 107 108 112 108 109 113 117 119 117 120 125 124 124 130 129
322 321 322 322 321 317 315 314 311 306 301 303 300 291 282 279 292 290 267 262 269 275 293 48 67 42 27 34 34 27 21 23 16 33 32 66 71 40 12 322 77 238 312 352 334 318 10 324 359 72 72 66 339 72 61 46 72 55 68 43 8 61 126 87 104 100 107 112 120 132 109 100 108 110 107 110 114 114 114 119 121 122 123 124 124 125 128
319 320 320 321 317 316 313 310 304 301 299 299 296 278 265 266 262 257 265 299 315 229 246 289 49 43 23 53 22 30 19 27 32 35 40 27 50 62 45 19 342 30 352 57 3 330 79 59 33 48 36 74 34 65 99 100 83 67 56 24 348 99 91 115 108 116 141 153 155 149 130 134 122 118 115 116 119 120 118 121 124 125 126 126 124 121 121
321 320 319 317 316 311 310 305 302 300 301 302 291 268 255 254 248 245 248 264 283 305 306 327 11 17 307 34 26 44 27 35 25 37 42 61 57 40 38 55 33 23 21 327 137 16 28 69 63 57 37 9 359 88 76 100 79 57 46 45 33 45 31 263 163 157 166 150 153 144 119 119 113 119 121 122 124 128 127 125 125 122 121 125 127 127 127
320 319 317 315 310 311 307 304 302 302 306 309 286 276 257 234 234 237 243 289 286 284 290 274 269 346 17 30 12 48 48 35 37 34 38 42 48 60 57 43 30 28 51 50 59 56 60 55 7 32 23 22 290 130 175 111 77 74 60 51 50 40 21 46 74 86 112 140 145 129 134 131 127 121 123 127 129 126 124 121 119 121 123 126 128 129 129
319 318 314 312 310 307 306 301 302 303 311 308 301 284 275 124 193 210 150 185 264 292 293 303 31 57 298 355 25 46 51 46 45 40 43 41 37 36 44 43 54 41 36 37 54 74 66 56 52 45 54 8 353 166 140 93 90 93 97 70 44 55 52 35 78 111 128 131 122 123 123 123 118 123 124 122 122 121 122 124 125 127 128 130 129 127 128
321 318 314 310 308 304 301 299 297 302 305 283 282 289 231 144 98 53 40 303 272 273 277 254 284 212 95 20 340 357 47 60 60 41 43 44 43 36 35 44 33 25 69 44 42 61 149 96 82 74 324 39 4 323 108 106 105 98 83 75 70 67 61 67 74 88 100 104 111 118 120 116 115 120 122 122 120 120 117 120 125 125 127 127 126 127 128
318 314 310 310 306 302 296 293 291 287 272 264 264 298 357 347 349 17 354 318 292 258 253 280 201 14 54 102 37 322 15 337 11 97 55 343 67 39 68 34 61 37 31 58 52 52 34 34 70 50 60 5 0 5 56 89 101 103 100 80 75 77 86 90 92 98 107 119 123 120 120 124 134 131 129 128 123 123 125 126 129 128 126 124 125 126 127
315 312 310 306 303 298 292 284 281 268 250 291 312 294 277 272 271 270 271 271 249 248 268 279 350 346 179 43 301 31 343 262 210 334 64 345 61 357 70 50 78 86 335 239 61 62 43 91 117 86 44 39 61 62 64 79 93 103 98 97 94 93 98 106 106 108 120 130 136 134 136 135 130 126 125 126 126 127 128 129 131 131 128 128 130 131 130
313 310 306 302 298 295 287 280 274 268 266 262 273 164 203 210 239 236 246 246 264 266 258 278 254 262 50 207 239 72 319 337 48 347 83 43 326 297 74 116 34 46 6 36 142 161 153 69 72 75 89 58 57 75 77 91 110 113 115 107 106 109 109 115 121 127 133 131 128 127 127 127 126 123 125 127 127 128 130 132 134 132 132 131 131 132 132
311 308 305 301 297 288 284 278 279 233 266 263 253 104 111 156 9 179 199 244 288 279 268 245 315 30 218 168 228 91 301 311 49 29 44 54 341 50 61 34 17 353 69 298 72 39 63 47 6 160 92 75 62 68 99 134 120 123 126 124 125 127 128 122 124 125 120 117 119 125 129 131 131 131 131 133 131 135 135 135 136 134 133 133 130 131 134
310 306 303 299 293 286 277 236 219 277 227 19 27 136 146 179 170 228 220 248 276 305 302 247 212 226 226 325 88 83 282 98 87 118 57 261 95 3 58 3 90 39 299 292 91 80 64 352 276 34 39 68 53 68 130 134 130 137 140 134 138 143 131 129 126 124 123 124 126 128 130 132 130 132 135 133 135 138 139 138 139 137 132 133 134 134 137
306 305 302 289 277 219 264 311 302 210 330 319 291 296 263 242 223 208 205 234 218 234 263 324 307 328 35 68 94 89 267 127 182 146 61 60 50 358 340 79 66 48 139 97 97 82 73 43 70 66 49 68 79 85 111 132 141 141 138 137 131 121 128 132 130 129 128 129 130 132 133 133 133 135 134 137 136 138 137 137 137 137 138 136 137 140 141
305 303 294 288 270 291 294 92 315 311 351 310 312 294 189 194 233 196 194 229 195 168 236 245 294 27 236 298 97 98 279 100 251 191 116 73 197 96 10 52 62 256 97 76 85 92 95 60 65 85 89 79 94 107 124 133 136 142 143 143 139 139 139 138 138 136 133 135 137 138 136 135 135 137 138 139 142 141 138 137 139 140 137 142 144 147 150
297 278 239 281 299 308 9 305 271 272 262 255 225 267 216 201 257 229 211 207 172 234 191 256 258 137 99 190 101 74 10 336 319 245 113 88 322 85 245 154 134 261 110 169 117 258 140 99 115 107 103 128 128 129 137 135 141 151 153 149 151 151 148 148 150 146 146 143 145 148 150 146 142 144 143 144 146 146 148 150 149 148 152 150 150 150 147
235 267 300 284 284 338 321 307 310 304 273 253 194 247 247 184 258 247 317 301 267 260 321 274 38 11 23 330 71 115 53 314 344 17 99 108 342 359 84 46 99 264 171 84 112 215 240 149 142 134 131 139 127 141 146 153 149 150 152 152 152 155 155 149 147 150 143 140 142 145 144 142 141 143 146 145 148 150 155 160 158 150 150 146 144 148 146
9 346 348 349 346 328 317 313 298 266 261 266 245 227 308 222 216 324 240 256 280 121 117 327 236 191 158 269 285 111 125 282 263 0 23 66 55 276 317 67 324 298 55 93 129 230 255 193 151 121 129 145 146 149 149 150 148 151 150 150 149 151 149 147 148 155 153 150 148 148 152 155 155 153 157 161 154 152 147 143 151 148 144 143 153 157 152
332 301 300 298 286 280 282 256 256 258 237 281 256 209 223 286 216 176 257 253 231 175 154 216 212 181 166 235 35 76 121 38 326 308 276 117 336 301 89 174 238 273 70 80 193 194 207 165 93 110 131 138 144 150 150 140 143 145 144 145 148 148 147 153 158 162 166 164 163 164 166 178 177 172 155 136 145 140 131 138 137 130 131 144 144 136 140
290 268 231 284 265 242 234 253 199 245 211 156 290 292 204 249 244 248 201 226 335 284 126 63 41 352 56 306 121 14 55 289 290 288 31 80 180 305 348 70 252 119 103 173 243 139 296 321 114 120 133 139 154 151 145 137 140 142 142 145 148 151 155 162 167 169 172 182 188 172 143 129 114 108 108 122 123 126 133 129 124 132 153 159 142 138 143
272 231 206 226 250 257 210 253 182 191 255 227 169 227 174 233 227 218 256 229 171 249 150 202 164 231 169 263 337 130 165 181 255 268 95 140 252 104 250 178 54 68 180 242 211 115 104 83 105 132 135 144 152 150 144 144 144 142 145 149 155 159 162 169 180 190 177 141 109 117 135 144 146 142 138 141 147 144 142 140 148 158 154 140 135 140 122
280 217 231 247 256 247 85 330 195 201 214 216 220 218 201 221 230 227 238 143 200 227 140 226 159 214 171 135 249 129 277 120 106 271 89 273 52 354 341 64 102 212 234 221 102 103 106 112 118 130 146 156 151 150 149 149 150 153 154 164 177 184 182 173 156 130 125 139 142 139 137 137 137 138 139 144 143 143 145 154 162 156 151 149 149 142 137
260 228 204 218 292 288 224 241 189 218 225 228 220 232 226 215 234 238 223 112 220 152 193 191 185 213 144 144 277 134 180 197 171 56 236 239 113 92 23 344 286 280 293 250 187 192 158 144 145 146 158 157 154 153 154 153 156 158 162 162 162 158 137 132 144 150 145 142 147 147 141 145 146 147 150 146 145 150 156 154 156 153 147 146 140 141 144
271 281 251 221 247 229 214 245 219 228 244 228 235 235 243 256 239 242 100 177 267 228 220 153 216 217 178 153 207 165 245 106 99 109 275 26 85 89 248 303 279 211 229 271 262 124 136 145 147 149 154 154 156 155 155 159 161 163 160 151 144 149 149 153 151 153 153 154 154 151 155 150 150 151 149 148 150 147 144 152 153 144 143 140 141 143 147
270 251 252 236 220 207 217 228 258 247 232 250 242 237 249 253 268 160 138 225 277 260 222 174 207 166 200 124 287 255 146 93 109 122 347 87 114 299 18 267 242 251 236 238 224 130 136 141 147 152 155 155 157 159 160 160 163 169 161 153 158 159 153 153 155 152 155 156 151 153 151 147 149 148 152 147 142 141 151 151 142 142 140 143 146 150 152
290 300 259 234 236 230 229 224 228 244 247 234 247 249 231 229 241 247 216 172 253 260 203 201 200 179 195 144 226 165 128 136 181 153 145 223 162 180 218 230 253 257 232 298 79 119 133 138 144 152 154 156 161 164 164 167 167 169 163 152 159 159 156 155 155 153 156 151 153 152 150 151 151 151 148 146 146 151 149 143 145 142 147 151 154 158 163
261 227 234 256 240 234 254 244 234 242 241 245 223 230 240 239 236 256 185 171 199 243 210 233 71 239 146 155 218 155 200 182 196 131 225 198 205 220 240 261 216 236 203 113 109 123 130 136 145 153 156 158 164 163 162 168 171 162 155 157 161 160 159 158 154 158 157 153 157 153 148 151 155 152 149 152 151 153 148 150 150 151 155 159 162 162 171
241 263 246 244 246 234 220 236 226 218 232 242 226 225 227 221 219 220 135 201 183 201 189 214 163 236 160 189 218 178 227 180 168 198 209 213 209 223 219 226 239 30 73 82 111 124 133 142 152 154 157 160 165 163 163 168 162 150 157 164 163 162 159 159 157 161 158 158 157 154 156 162 158 153 150 150 154 156 153 155 155 158 161 163 169 168 174
229 226 232 229 239 256 266 275 266 247 230 236 240 230 228 238 224 218 144 220 205 218 198 209 193 216 189 195 198 213 83 232 246 197 213 224 176 219 212 277 31 88 119 121 119 128 136 149 154 156 159 161 163 159 159 158 158 160 165 165 165 162 160 159 161 164 159 160 161 162 167 165 157 158 160 153 157 161 161 162 165 164 164 167 171 175 172